Location: Bakov nad Jizerou
(50.4784°N, 14.9394°E)
Time: 15:27:48
(UTC+00:00)

Cosmos 1900 - Pass Details

Date: 16 June 2021
Orbit: 691 x 730 km, 66.1° (Epoch: 03 August)

Event Time Altitude Azimuth Distance (km) Brightness Sun altitude
Rises 20:48:13 0° 321° (NW) 3,096 9.7 -10.5°
Reaches altitude 10° 20:50:34 10° 320° (NW) 2,169 8.4 -10.7°
Maximum altitude 20:55:30 79° 235° (SW) 713 4.3 -11.1°
Enters shadow 20:59:24 16° 150° (SSE) 1,773 5.7 -11.4°
